Regional Weather Roundup
Issued by NWS Charleston, SC

Current Version | Previous Version | Text Only | Print | Product List | Glossary Off
Versions: 1 2 3 4 5 6 7 8 9 10 11 12 13 14 15 16 17 18 19 20 21 22 23 24 25 26 27 28 29 30 31 32 33 34 35 36 37 38 39 40 41 42 43 44 45 46 47 48 49 50

167
ASUS42 KCHS 251828
RWRCHS

REGIONAL WEATHER ROUNDUP
NATIONAL WEATHER SERVICE CHARLESTON SC
200 PM EDT SUN SEP 25 2016

NOTE: "FAIR" INDICATES FEW OR NO CLOUDS BELOW 12,000 FEET WITH NO
SIGNIFICANT WEATHER AND/OR OBSTRUCTIONS TO VISIBILITY.

NOT ALL STATIONS ARE QUALITY CONTROLLED. USE DATA WITH CAUTION...
ESPECIALLY DEWPOINT OBSERVATIONS.

SCZ027-030-031-034>040-042>050-251900-
...SOUTHEAST SOUTH CAROLINA...

CITY           SKY/WX    TMP DP  RH WIND       PRES   REMARKS
N CHARLESTON   CLOUDY    85  70  60 E8        30.07F
6HR MIN TEMP:  72; 6HR MAX TEMP:  85;

WATERFRONT PRK   N/A     82  73  74 NE10      30.05F
MOUNT PLEASANT FAIR      86  72  62 CALM      30.06F HX  92
JOHNS ISLAND   MOCLDY    84  73  70 E10       30.06F HX  91
PINOPOLIS        N/A     82  73  74 NE6       30.02F
MONCKS CORNER  FAIR      84  68  58 NE7       30.06F
SUMMERVILLE    MOCLDY    82  72  69 N3        30.08F
BEAUFORT MCAS  MOSUNNY   87  71  58 E7        30.07F HX  93
6HR MIN TEMP:  75; 6HR MAX TEMP:  88;

BEAUFORT ARPT  FAIR      84  70  61 E7        30.06F
HILTON HEAD IS PTSUNNY   88  72  58 E10       30.08F HX  94
WALTERBORO     PTCLDY    88  68  51 E8        30.08F HX  91
ALLENDALE      FAIR      86  66  51 VRB5G12   30.07F

...SOUTHERN MIDLANDS AND PEE DEE...

CITY           SKY/WX    TMP DP  RH WIND       PRES   REMARKS
GEORGETOWN     MOCLDY    81  72  74 NE8       30.08F
KINGSTREE      FAIR      86  68  54 E7        30.07F
ORANGEBURG     SUNNY     86  67  52 VRB6      30.08F
6HR MIN TEMP:  69; 6HR MAX TEMP:  87;

BARNWELL       NOT AVBL
AIKEN          FAIR      86  64  48 E8        30.11F
MANNING        FAIR      86  68  54 SE5       30.07F
COLUMBIA       MOSUNNY   88  64  44 E5        30.07F
6HR MIN TEMP:  68; 6HR MAX TEMP:  89;

SUMTER         MOSUNNY   88  67  50 VRB5      30.06F HX  91
6HR MIN TEMP:  70; 6HR MAX TEMP:  88;

FLORENCE       MOSUNNY   86  69  56 VRB3      30.09F HX  90
6HR MIN TEMP:  72; 6HR MAX TEMP:  87;

MYRTLE BEACH   MOSUNNY   84  66  54 E8        30.10F
N MYRTLE BEACH SUNNY     83  73  72 SE8       30.08F
6HR MIN TEMP:  70; 6HR MAX TEMP:  84;


$$

GAZ063-065-086>088-099>101-113>116-118-119-134>141-150-251900-
...SOUTHEAST GEORGIA...

CITY           SKY/WX    TMP DP  RH WIND       PRES   REMARKS
SAVANNAH ARPT  PTSUNNY   88  64  44 N9        30.06F
6HR MIN TEMP:  74; 6HR MAX TEMP:  90;

HUNTER AAF     MOSUNNY   86  75  70 NE8       30.04F HX  95
FORT STEWART   MOSUNNY   85  71  62 E3        30.03F
6HR MIN TEMP:  72; 6HR MAX TEMP:  87;

STATESBORO     SUNNY     90  70  52 E3        30.06F HX  95
SYLVANIA       NOT AVBL
CLAXTON        FAIR      89  71  54 N6        30.05F HX  96

...CSRA...CENTRAL AND FAR SOUTHEAST GEORGIA...

CITY           SKY/WX    TMP DP  RH WIND       PRES   REMARKS
THOMSON        MOSUNNY   92  68  44 E7        30.11F HX  96
AUGUSTA-BUSH   MOSUNNY   87  67  51 S6        30.06F HX  90
6HR MIN TEMP:  64; 6HR MAX TEMP:  89;

AUGUSTA-DANIEL SUNNY     91  63  39 VRB3      30.08F HX  92
SWAINSBORO     FAIR      88  68  51 E8        30.07F HX  91
VIDALIA        MOSUNNY   90  73  58 NE13      30.05F HX  98
EASTMAN        FAIR      93  46  19 E10G16    30.07F HX  90
HAZLEHURST     FAIR      88  72  58 W5        30.04F HX  94
ALMA           MOSUNNY   89  71  55 NE5       30.04F HX  95
6HR MIN TEMP:  69; 6HR MAX TEMP:  89;

WAYCROSS       MOSUNNY   88  75  65 SE8       30.03F HX  97
JESUP          FAIR      90  73  58 E9        30.04F HX  98
BAXLEY         FAIR      90  75  62 E6        30.04F HX 100
BRUNSWICK      MOSUNNY   86  77  74 E14       30.05F HX  97
SAINT SIMONS   MOSUNNY   85  73  67 NE13G22   30.04F HX  91
6HR MIN TEMP:  74; 6HR MAX TEMP:  86;


$$

SCZ027-028-034-036>038-045-046-048>050-GAZ119-141-251900-
...LAKE AND SUPPLEMENTAL COASTAL OBSERVATIONS...

STATION/POSITION TIME  TEMP    WIND        PRES    WAVE   SWELL
                       AIR SEA DIR/SP/G            HT/PER HT/PER/DIR
                 (UTC) (F)     (DEG/KT/KT) (MB)    (FT/S) (FT/S/D)
WINYAH BAY       1745   80      60/ 12     1018.0S
LAKE MURRAY      1820   85     230/  3/  5 1017.6
ACE BASIN NERRS  1745   86      70/  3     1019.0S
FORT PULASKI     1800   80 81   60/ 10/ 12 1018.5
SAPELO ISLAND    1800   85      50/ 10     1018.0

$$

ANZ835-935-AMZ111-154-330-350-352-354-370-450-454-472-251900-
...C-MAN AND BUOY OBSERVATIONS...

STATION/POSITION TIME  TEMP    WIND        PRES    WAVE   SWELL
                       AIR SEA DIR/SP/G            HT/PER HT/PER/DIR
                 (UTC) (F)     (DEG/KT/KT) (MB)    (FT/S) (FT/S/D)
BUOY 41004       1750   82 82   60/ 16/ 17 1016.9F   4/10   3/ 90/10
BUOY 41008       1750   80 82   40/ 12/ 16 1017.4F   4/11   3/120/11
FOLLY BEACH CMAN 1800   81      60/ 13/ 15 1018.4F
CAPERS NEARSHORE 1808   80 81   50/ 14/ 17 1017.8F
FRIPP NEARSHORE  1808   85 81   60/ 12/ 16 1017.8F


STATION/POSITION TIME  TEMP    WIND        PRES    WAVE   SWELL
                       AIR SEA DIR/SP/G            HT/PER HT/PER/DIR
                 (UTC) (F)     (DEG/KT/KT) (MB)    (FT/S) (FT/S/D)
5E ST. MARYS GA  1801      83                N/A     3/10   2/120/11
FRYING PAN BUOY  1810   80 82   50/ 14/ 17 1017.9
BUOY 41025       1750   74 85   40/ 17/ 21 1019.2R   5/ 8   3/ 50/ 8
CAPE LOOKOUT NC  1800   76      30/ 18/ 20 1019.3F
BUOY 41002       1750   82 84   60/ 10/ 12 1016.7F   4/10   3/100/10
BUOY 41010       NOT AVBL
ST AUGUSTINE FL  1800   81 85   20/ 11/ 12 1017.7F


$$




USA.gov is the U.S. government's official web portal to all federal, state and local government web resources and services.